TimePST,TemperatureF,Dew PointF,Humidity,Sea Level PressureIn,VisibilityMPH,Wind Direction,Wind SpeedMPH,Gust SpeedMPH,PrecipitationIn,Events,Conditions,WindDirDegrees,DateUTC
12:53 AM,46.0,36.0,68,29.79,10.0,WSW,15.0,-,N/A,,Overcast,240,2013-11-17 08:53:00
1:53 AM,45.0,36.0,71,29.81,10.0,WSW,11.5,-,N/A,,Overcast,240,2013-11-17 09:53:00
2:53 AM,45.0,36.0,71,29.83,10.0,SW,11.5,-,0.00,Rain,Light Rain,230,2013-11-17 10:53:00
3:53 AM,46.0,36.0,68,29.84,10.0,SW,10.4,-,0.00,,Overcast,230,2013-11-17 11:53:00
4:53 AM,45.0,37.0,74,29.86,10.0,WSW,9.2,-,0.00,Rain,Light Rain,250,2013-11-17 12:53:00
5:53 AM,42.1,37.0,82,29.88,10.0,SSW,4.6,-,0.00,,Overcast,210,2013-11-17 13:53:00
6:53 AM,41.0,37.0,86,29.91,10.0,Calm,Calm,-,N/A,,Overcast,0,2013-11-17 14:53:00
7:53 AM,43.0,37.9,82,29.92,10.0,SSE,4.6,-,N/A,,Overcast,150,2013-11-17 15:53:00
8:53 AM,46.0,39.0,76,29.94,10.0,Calm,Calm,-,N/A,,Overcast,0,2013-11-17 16:53:00
9:53 AM,48.0,39.9,74,29.96,10.0,Calm,Calm,-,N/A,,Scattered Clouds,0,2013-11-17 17:53:00
10:53 AM,52.0,37.0,57,29.96,10.0,WSW,4.6,-,N/A,,Overcast,250,2013-11-17 18:53:00
11:53 AM,55.9,36.0,47,29.94,10.0,West,9.2,-,N/A,,Overcast,260,2013-11-17 19:53:00
12:53 PM,57.9,33.1,39,29.93,10.0,WSW,17.3,26.5,N/A,,Overcast,250,2013-11-17 20:53:00
1:53 PM,59.0,32.0,36,29.90,10.0,SW,16.1,27.6,0.00,,Mostly Cloudy,230,2013-11-17 21:53:00
2:53 PM,60.1,32.0,35,29.90,10.0,WSW,19.6,-,N/A,,Clear,240,2013-11-17 22:53:00
3:53 PM,57.0,32.0,39,29.90,10.0,WSW,16.1,-,N/A,,Clear,240,2013-11-17 23:53:00
4:53 PM,52.0,32.0,47,29.91,10.0,SSW,11.5,-,N/A,,Clear,210,2013-11-18 00:53:00
5:53 PM,50.0,32.0,50,29.93,10.0,SSW,10.4,-,N/A,,Scattered Clouds,210,2013-11-18 01:53:00
6:53 PM,52.0,32.0,47,29.93,10.0,SW,10.4,-,N/A,,Clear,230,2013-11-18 02:53:00
7:53 PM,48.0,33.1,56,29.93,10.0,SSW,6.9,-,N/A,,Clear,210,2013-11-18 03:53:00
8:53 PM,48.9,33.1,54,29.94,10.0,SSW,5.8,-,N/A,,Clear,210,2013-11-18 04:53:00
9:53 PM,48.9,32.0,52,29.94,10.0,Calm,Calm,-,N/A,,Clear,0,2013-11-18 05:53:00
10:53 PM,46.9,32.0,56,29.94,10.0,SW,6.9,-,N/A,,Clear,230,2013-11-18 06:53:00
11:53 PM,50.0,32.0,50,29.95,10.0,WSW,6.9,-,N/A,,Clear,240,2013-11-18 07:53:00